Location: Unspecified
(0.0000°N, 0.0000°E)
Time: 05:45:24
(UTC+00:00)

NOSS 3-2 (C) - Visible Passes

Search period start: 25 April 2019 00:00
Search period end: 05 May 2019 00:00
Orbit: 831 x 1382 km, 63.4° (Epoch: 22 April)

Date Brightness Start Highest point End Pass type
(mag) Time Alt. Az. Time Alt. Az. Time Alt. Az.
01 May 6.4 21:18:24 10° N 21:18:48 12° N 21:18:48 12° N visible
02 May 6.1 20:34:56 10° NNE 20:35:56 13° NNE 20:35:56 13° NNE visible
03 May 6.1 19:53:04 10° NE 19:53:08 10° NE 19:53:08 10° NE visible
03 May 6.2 21:39:11 10° NNW 21:40:36 16° NNW 21:40:36 16° NNW visible
04 May 5.6 20:54:39 10° N 20:57:52 26° N 20:57:52 26° N visible
